Weather in Blagodatnoe

Ukraine / Kherson District     46°37′33″N   34°25′03″E
temp.,
°C
wind,
m/s
gust,
m/s
humid.,
%
clouds,
%
prec.,
mm/h
press.,
hPa
HPBL,
m
20 june, sun
sun2000:00+20ne71583100 2.4 1011453
03:00+19e5128397 4.5 1011361
06:00+20e614772 1.2 1011520
09:00+23ese9126678 1.6 1011870
12:00+25e89560 0.1 10111020
15:00+26ese66537 0.1 10111288
18:00+25ese566113 0.0 1011900
21:00+21ese35820 0.0 101282
21 june, mon
mon2100:00+20ene228316 0.0 101214
03:00+19nne338573 0.0 101126
06:00+20n34830 0.0 101183
09:00+26nne33630 0.0 1011513
12:00+29ne33490 0.0 10111154
15:00+31ne334556 0.0 10101558
18:00+29ese665735 0.0 1010785
21:00+24ene346632 0.0 101052
22 june, tue
tue2200:00+22nne48696 0.0 1010141
03:00+21ene3382100 0.0 100939
06:00+21e368335 0.0 1009132
09:00+26ese57688 0.0 1010593
12:00+29e666048 0.0 10101043
15:00+30ese775938 0.0 10101413
18:00+27ese67580 0.0 1011837
21:00+23ese22605 0.0 101211
23 june, wed
wed2300:00+21se1171100 0.6 101111
03:00+20w2272100 0.6 101115
06:00+21nw227035 0.0 101126
09:00+27sse33564 0.0 1012506
12:00+30sse444392 0.0 10131233
15:00+30se4349100 0.0 10131035
18:00+29ssw3355100 0.0 1014611
21:00+25s1168100 0.0 101411
24 june, thu
thu2400:00+25n346774 0.0 101456
03:00+23nne477046 0.0 1013107
06:00+23n41077100 0.0 1013206
09:00+26ene5858100 0.0 1013501
12:00+30e6752100 0.0 10131294
15:00+28e5559100 0.0 1014749
18:00+26ese4665100 0.1 1014310
21:00+23se257774 0.1 1016140